| time (UTC) | temp F | wind direction | speed MPH | gust MPH | rain 1hr in | rain 24hr in | rain mn in | humidity % | barometer mb |
| 20260902220100 | 68 | 177 | 6.0 | 18.0 | 0.00 | 0.00 | 0.00 | 29 | 1016.4 |
| 20260902214604 | 67 | 148 | 2.0 | 16.0 | 0.00 | 0.00 | 0.00 | 29 | 1016.6 |
| 20260902213053 | 67 | 211 | 7.0 | 17.0 | 0.00 | 0.00 | 0.00 | 29 | 1016.6 |
| 20260902211615 | 67 | 162 | 6.0 | 11.0 | 0.00 | 0.00 | 0.00 | 30 | 1016.6 |
| 20260902210115 | 67 | 180 | 6.0 | 19.0 | 0.00 | 0.00 | 0.00 | 30 | 1016.6 |
| 20260902204559 | 67 | 193 | 5.0 | 11.0 | 0.00 | 0.00 | 0.00 | 30 | 1016.7 |
| 20260902203051 | 67 | 167 | 4.0 | 14.0 | 0.00 | 0.00 | 0.00 | 30 | 1016.7 |
| 20260902201602 | 67 | 196 | 4.0 | 17.0 | 0.00 | 0.00 | 0.00 | 30 | 1017.0 |
| 20260902200049 | 67 | 171 | 3.0 | 20.0 | 0.00 | 0.00 | 0.00 | 32 | 1017.0 |
| 20260902194550 | 67 | 188 | 8.0 | 15.0 | 0.00 | 0.00 | 0.00 | 31 | 1017.1 |
| 20260902193048 | 66 | 178 | 7.0 | 19.0 | 0.00 | 0.00 | 0.00 | 33 | 1017.3 |
| 20260902191548 | 65 | 161 | 3.0 | 9.0 | 0.00 | 0.00 | 0.00 | 36 | 1017.5 |
| 20260902190055 | 64 | 266 | 3.0 | 10.0 | 0.00 | 0.00 | 0.00 | 36 | 1017.6 |
| 20260902184627 | 63 | 200 | 2.0 | 12.0 | 0.00 | 0.00 | 0.00 | 37 | 1017.8 |
| 20260902183048 | 63 | 0 | 0.0 | 1.0 | 0.00 | 0.00 | 0.00 | 40 | 1017.8 |
| 20260902181606 | 62 | 0 | 0.0 | 0.0 | 0.00 | 0.00 | 0.00 | 41 | 1017.8 |
| 20260902180116 | 61 | 0 | 0.0 | 3.0 | 0.00 | 0.00 | 0.00 | 42 | 1017.9 |
| 20260902174558 | 60 | 0 | 0.0 | 4.0 | 0.00 | 0.00 | 0.00 | 43 | 1018.0 |
| 20260902173051 | 59 | 0 | 0.0 | 4.0 | 0.00 | 0.00 | 0.00 | 44 | 1017.9 |
| 20260902171552 | 58 | 302 | 0.0 | 4.0 | 0.00 | 0.00 | 0.00 | 45 | 1017.8 |
| 20260902170045 | 58 | 0 | 0.0 | 2.0 | 0.00 | 0.00 | 0.00 | 45 | 1017.9 |
| 20260902164554 | 57 | 10 | 0.0 | 3.0 | 0.00 | 0.00 | 0.00 | 45 | 1017.9 |
| 20260902163050 | 57 | 302 | 2.0 | 7.0 | 0.00 | 0.00 | 0.00 | 45 | 1017.8 |
| 20260902161546 | 57 | 267 | 2.0 | 8.0 | 0.00 | 0.00 | 0.00 | 45 | 1017.7 |
| 20260902160053 | 57 | 244 | 1.0 | 11.0 | 0.00 | 0.00 | 0.00 | 44 | 1017.6 |
| 20260902154550 | 58 | 180 | 3.0 | 10.0 | 0.00 | 0.00 | 0.00 | 43 | 1017.7 |
| 20260902153045 | 57 | 192 | 0.0 | 6.0 | 0.00 | 0.00 | 0.00 | 44 | 1017.9 |
| 20260902151558 | 56 | 0 | 0.0 | 3.0 | 0.00 | 0.00 | 0.00 | 44 | 1017.9 |
| 20260902150048 | 54 | 0 | 0.0 | 1.0 | 0.00 | 0.00 | 0.00 | 47 | 1017.9 |
| 20260902144558 | 53 | 0 | 0.0 | 0.0 | 0.00 | 0.00 | 0.00 | 49 | 1017.8 |
| 20260902143057 | 52 | 0 | 0.0 | 0.0 | 0.00 | 0.00 | 0.00 | 51 | 1017.7 |
| 20260902141552 | 51 | 0 | 0.0 | 0.0 | 0.00 | 0.00 | 0.00 | 52 | 1017.4 |
| 20260902140046 | 51 | 0 | 0.0 | 3.0 | 0.00 | 0.00 | 0.00 | 47 | 1017.4 |
| 20260902134600 | 50 | 0 | 0.0 | 0.0 | 0.00 | 0.00 | 0.00 | 47 | 1017.2 |
| 20260902133054 | 51 | 0 | 0.0 | 1.0 | 0.00 | 0.00 | 0.00 | 46 | 1017.0 |
| 20260902131546 | 51 | 0 | 0.0 | 0.0 | 0.00 | 0.00 | 0.00 | 44 | 1016.9 |
| 20260902130104 | 52 | 0 | 0.0 | 5.0 | 0.00 | 0.00 | 0.00 | 41 | 1016.9 |
| 20260902124549 | 51 | 0 | 0.0 | 2.0 | 0.00 | 0.00 | 0.00 | 42 | 1016.6 |
| 20260902123101 | 52 | 0 | 0.0 | 0.0 | 0.00 | 0.00 | 0.00 | 40 | 1016.6 |
| 20260902121545 | 53 | 0 | 0.0 | 6.0 | 0.00 | 0.00 | 0.00 | 38 | 1016.7 |
| 20260902120056 | 53 | 17 | 1.0 | 4.0 | 0.00 | 0.00 | 0.00 | 37 | 1016.6 |
| 20260902114551 | 53 | 0 | 1.0 | 3.0 | 0.00 | 0.00 | 0.00 | 38 | 1016.6 |
| 20260902113051 | 53 | 0 | 0.0 | 7.0 | 0.00 | 0.00 | 0.00 | 37 | 1016.7 |
| 20260902111556 | 53 | 0 | 0.0 | 4.0 | 0.00 | 0.00 | 0.00 | 37 | 1016.7 |
| 20260902110048 | 54 | 0 | 0.0 | 7.0 | 0.00 | 0.00 | 0.00 | 35 | 1016.6 |
| 20260902104546 | 55 | 0 | 1.0 | 6.0 | 0.00 | 0.00 | 0.00 | 32 | 1016.3 |
| 20260902103055 | 55 | 302 | 2.0 | 6.0 | 0.00 | 0.00 | 0.00 | 33 | 1016.3 |
| 20260902101552 | 57 | 322 | 3.0 | 10.0 | 0.00 | 0.00 | 0.00 | 29 | 1016.1 |
| 20260902100050 | 57 | 342 | 0.0 | 9.0 | 0.00 | 0.00 | 0.00 | 29 | 1016.0 |
| 20260902094546 | 57 | 180 | 2.0 | 7.0 | 0.00 | 0.00 | 0.00 | 30 | 1016.2 |
| 20260902093052 | 57 | 178 | 1.0 | 7.0 | 0.00 | 0.00 | 0.00 | 32 | 1016.1 |
| 20260902091559 | 57 | 193 | 1.0 | 7.0 | 0.00 | 0.00 | 0.00 | 31 | 1016.1 |
| 20260902090049 | 57 | 195 | 1.0 | 9.0 | 0.00 | 0.00 | 0.00 | 33 | 1016.0 |
| 20260902084550 | 57 | 185 | 2.0 | 11.0 | 0.00 | 0.00 | 0.00 | 34 | 1016.3 |
| 20260902083057 | 58 | 130 | 1.0 | 7.0 | 0.00 | 0.00 | 0.00 | 34 | 1016.2 |
| 20260902081551 | 58 | 0 | 2.0 | 12.0 | 0.00 | 0.00 | 0.00 | 32 | 1016.2 |
| 20260902080106 | 58 | 202 | 3.0 | 11.0 | 0.00 | 0.00 | 0.00 | 31 | 1016.2 |
| 20260902074556 | 59 | 206 | 4.0 | 11.0 | 0.00 | 0.00 | 0.00 | 30 | 1016.1 |
| 20260902073053 | 59 | 142 | 4.0 | 11.0 | 0.00 | 0.00 | 0.00 | 28 | 1016.2 |
| 20260902071547 | 59 | 180 | 3.0 | 12.0 | 0.00 | 0.00 | 0.00 | 24 | 1016.1 |
| 20260902070051 | 60 | 190 | 4.0 | 14.0 | 0.00 | 0.00 | 0.00 | 22 | 1015.9 |
| 20260902064603 | 60 | 171 | 3.0 | 13.0 | 0.00 | 0.00 | 0.00 | 25 | 1015.9 |
| 20260902063048 | 60 | 144 | 4.0 | 11.0 | 0.00 | 0.00 | 0.00 | 24 | 1015.8 |
| 20260902061554 | 60 | 165 | 5.0 | 14.0 | 0.00 | 0.00 | 0.00 | 26 | 1015.7 |
| 20260902060110 | 59 | 158 | 8.0 | 19.0 | 0.00 | 0.00 | 0.00 | 28 | 1015.7 |
| 20260902054554 | 59 | 123 | 3.0 | 14.0 | 0.00 | 0.00 | 0.00 | 30 | 1015.7 |
| 20260902053058 | 59 | 162 | 4.0 | 9.0 | 0.00 | 0.00 | 0.00 | 31 | 1015.7 |
| 20260902051547 | 60 | 173 | 5.0 | 15.0 | 0.00 | 0.00 | 0.00 | 32 | 1015.6 |
| 20260902050056 | 60 | 157 | 5.0 | 11.0 | 0.00 | 0.00 | 0.00 | 31 | 1015.6 |
| 20260902044553 | 60 | 155 | 5.0 | 11.0 | 0.00 | 0.00 | 0.00 | 32 | 1015.4 |
| 20260902043050 | 61 | 174 | 5.0 | 12.0 | 0.00 | 0.00 | 0.00 | 32 | 1015.3 |
| 20260902041554 | 61 | 144 | 5.0 | 15.0 | 0.00 | 0.00 | 0.00 | 29 | 1015.0 |
| 20260902040057 | 61 | 187 | 6.0 | 14.0 | 0.00 | 0.00 | 0.00 | 30 | 1015.0 |
| 20260902034600 | 62 | 138 | 5.0 | 13.0 | 0.00 | 0.00 | 0.00 | 30 | 1014.7 |
| 20260902033108 | 62 | 178 | 5.0 | 13.0 | 0.00 | 0.00 | 0.00 | 30 | 1014.6 |
| 20260902031552 | 63 | 175 | 6.0 | 17.0 | 0.00 | 0.00 | 0.00 | 28 | 1014.4 |
| 20260902030056 | 63 | 165 | 6.0 | 16.0 | 0.00 | 0.00 | 0.00 | 27 | 1014.4 |
| 20260902024551 | 64 | 167 | 7.0 | 18.0 | 0.00 | 0.00 | 0.00 | 23 | 1014.2 |
| 20260902023045 | 64 | 174 | 6.0 | 16.0 | 0.00 | 0.00 | 0.00 | 24 | 1014.2 |
| 20260902021546 | 65 | 126 | 6.0 | 15.0 | 0.00 | 0.00 | 0.00 | 27 | 1014.0 |
| 20260902020044 | 67 | 150 | 5.0 | 15.0 | 0.00 | 0.00 | 0.00 | 26 | 1014.1 |
| 20260902014553 | 68 | 228 | 6.0 | 20.0 | 0.00 | 0.00 | 0.00 | 23 | 1014.1 |
| 20260902013048 | 69 | 233 | 8.0 | 17.0 | 0.00 | 0.00 | 0.00 | 23 | 1014.2 |
| 20260902011551 | 69 | 178 | 10.0 | 20.0 | 0.00 | 0.00 | 0.00 | 22 | 1014.3 |
| 20260902010053 | 70 | 257 | 8.0 | 18.0 | 0.00 | 0.00 | 0.00 | 23 | 1014.2 |
| 20260902004600 | 70 | 173 | 10.0 | 20.0 | 0.00 | 0.00 | 0.00 | 22 | 1014.1 |
| 20260902003057 | 71 | 118 | 8.0 | 18.0 | 0.00 | 0.00 | 0.00 | 22 | 1014.1 |
| 20260902001553 | 72 | 182 | 7.0 | 17.0 | 0.00 | 0.00 | 0.00 | 23 | 1014.1 |
| 20260902000050 | 71 | 151 | 9.0 | 20.0 | 0.00 | 0.00 | 0.00 | 22 | 1014.1 |
| 20260901234554 | 72 | 201 | 7.0 | 19.0 | 0.00 | 0.00 | 0.00 | 23 | 1014.0 |
| 20260901233053 | 71 | 213 | 10.0 | 21.0 | 0.00 | 0.00 | 0.00 | 24 | 1013.9 |
| 20260901231552 | 72 | 360 | 7.0 | 18.0 | 0.00 | 0.00 | 0.00 | 25 | 1014.0 |
| 20260901230047 | 72 | 237 | 8.0 | 18.0 | 0.00 | 0.00 | 0.00 | 22 | 1014.1 |
| 20260901224555 | 73 | 208 | 11.0 | 25.0 | 0.00 | 0.00 | 0.00 | 21 | 1014.0 |
| 20260901223052 | 73 | 257 | 11.0 | 20.0 | 0.00 | 0.00 | 0.00 | 19 | 1014.0 |
| 20260901221547 | 75 | 157 | 9.0 | 23.0 | 0.00 | 0.00 | 0.00 | 18 | 1013.9 |